This is the latest recevied weather packets stored in our database for station/object K7AEL. If no packets are shown the sender has not sent any weather packets the latest 10 day(s).
| Time | Temp. | Humidity | Pressure | Rain* | Wind** | Luminosity | Snow |
|---|---|---|---|---|---|---|---|
| 1777770667 | 30° C | 20% | 1011.7 hPa | 0 mm | - | 44 W/m² | - |
| 1777770363 | 30° C | 20% | 1012 hPa | 0 mm | - | 52 W/m² | - |
| 1777770061 | 30° C | 20% | 1011.9 hPa | 0 mm | - | 60 W/m² | - |
| 1777769757 | 30° C | 20% | 1012.1 hPa | 0 mm | - | 70 W/m² | - |
| 1777769455 | 30° C | 19% | 1012 hPa | 0 mm | - | 77 W/m² | - |
| 1777769150 | 30.56° C | 19% | 1011.8 hPa | 0 mm | - | 75 W/m² | - |
| 1777768849 | 30.56° C | 19% | 1012 hPa | 0 mm | - | 69 W/m² | - |
| 1777768545 | 30.56° C | 18% | 1011.8 hPa | 0 mm | - | 68 W/m² | - |
| 1777768243 | 31.11° C | 17% | 1011.8 hPa | 0 mm | - | 109 W/m² | - |
| 1777767940 | 31.11° C | 17% | 1011.8 hPa | 0 mm | - | 119 W/m² | - |
| 1777767637 | 31.11° C | 18% | 1012 hPa | 0 mm | - | 146 W/m² | - |
| 1777767333 | 31.11° C | 17% | 1011.9 hPa | 0 mm | - | 143 W/m² | - |
| 1777767031 | 30.56° C | 17% | 1011.9 hPa | 0 mm | - | 111 W/m² | - |
| 1777766728 | 31.11° C | 17% | 1012.1 hPa | 0 mm | - | 129 W/m² | - |
| 1777766424 | 31.11° C | 17% | 1011.8 hPa | 0 mm | - | 193 W/m² | - |
| 1777766121 | 31.67° C | 18% | 1012 hPa | 0 mm | - | 188 W/m² | - |
| 1777765819 | 32.22° C | 17% | 1012 hPa | 0 mm | - | 139 W/m² | - |
| 1777765515 | 31.67° C | 16% | 1012 hPa | 0 mm | - | 170 W/m² | - |
| 1777765212 | 31.11° C | 16% | 1012 hPa | 0 mm | - | 298 W/m² | - |
| 1777764907 | 30.56° C | 17% | 1011.9 hPa | 0 mm | - | 122 W/m² | - |
| 1777764604 | 31.11° C | 15% | 1011.9 hPa | 0 mm | - | 102 W/m² | - |
| 1777764301 | 31.67° C | 16% | 1011.8 hPa | 0 mm | - | 145 W/m² | - |
| 1777763997 | 31.11° C | 16% | 1012.1 hPa | 0 mm | - | 114 W/m² | - |
| 1777763695 | 31.67° C | 16% | 1012.2 hPa | 0 mm | - | 135 W/m² | - |
| 1777763393 | 31.67° C | 16% | 1012.1 hPa | 0 mm | - | 400 W/m² | - |
* Rain latest hour (hover to see other rain measurements)
** Current wind speed in m/s (hover to see current wind gust speed)